When you browse on this site, cookies collect data to enhance your experience and personalize the content and advertising you see.
Visit our Privacy Policy to learn more. By continuing to use the site, you agree to this use of cookies and data.
  • Em Portugal
  • Lista de países
  • Para 7 dias
  • Temperatura da água
  • Mapa do tempo
  • Widgets de tempo
  • user-avatar
    Iniciar Sessão

    Previsão horária em Baraki Barak

    Hoje, 1 Junho, Segunda-feira

    Tempo Temperatura Precipitação Vento Pressão Humidade
    00:00 +20°C° 0 mm 2 m/s 599 mmHg 31%
    01:00 +20°C° 0 mm 1 m/s 599 mmHg 35%
    02:00 +19°C° 0 mm 1 m/s 599 mmHg 39%
    03:00 +18°C° 0 mm 1 m/s 598 mmHg 40%
    04:00 +18°C° 0 mm 1 m/s 598 mmHg 41%
    05:00 +16°C° 0 mm 1 m/s 598 mmHg 43%
    06:00 +18°C° 0 mm 1 m/s 599 mmHg 38%
    07:00 +19°C° 0 mm 1 m/s 599 mmHg 34%
    08:00 +21°C° 0 mm 1 m/s 600 mmHg 29%
    09:00 +22°C° 0 mm 1 m/s 600 mmHg 26%
    10:00 +23°C° 0 mm 2 m/s 601 mmHg 23%
    11:00 +24°C° 0 mm 2 m/s 601 mmHg 20%
    12:00 +25°C° 0 mm 2 m/s 601 mmHg 17%
    13:00 +26°C° 0 mm 2 m/s 601 mmHg 15%
    14:00 +27°C° 0 mm 2 m/s 601 mmHg 13%
    15:00 +27°C° 0 mm 3 m/s 601 mmHg 12%
    16:00 +27°C° 0 mm 4 m/s 600 mmHg 12%
    17:00 +28°C° 0 mm 4 m/s 600 mmHg 12%
    18:00 +26°C° 0 mm 5 m/s 600 mmHg 13%
    19:00 +25°C° 0 mm 5 m/s 600 mmHg 15%
    20:00 +23°C° 0 mm 6 m/s 600 mmHg 17%
    21:00 +22°C° 0 mm 4 m/s 600 mmHg 19%
    22:00 +21°C° 0 mm 3 m/s 600 mmHg 22%
    23:00 +21°C° 0 mm 1 m/s 599 mmHg 24%

    Amanhã, 2 Junho, Terça-feira

    Tempo Temperatura Precipitação Vento Pressão Humidade
    00:00 +20°C° 0 mm 1 m/s 599 mmHg 25%
    01:00 +20°C° 0 mm 1 m/s 599 mmHg 26%
    02:00 +19°C° 0 mm 1 m/s 598 mmHg 27%
    03:00 +18°C° 0 mm 1 m/s 598 mmHg 29%
    04:00 +18°C° 0 mm 1 m/s 597 mmHg 30%
    05:00 +16°C° 0 mm 1 m/s 597 mmHg 32%
    06:00 +18°C° 0 mm 1 m/s 598 mmHg 28%
    07:00 +19°C° 0 mm 1 m/s 599 mmHg 25%
    08:00 +21°C° 0 mm 1 m/s 599 mmHg 22%
    09:00 +22°C° 0 mm 1 m/s 600 mmHg 20%
    10:00 +23°C° 0 mm 2 m/s 600 mmHg 18%
    11:00 +24°C° 0 mm 2 m/s 600 mmHg 15%
    12:00 +25°C° 0 mm 2 m/s 600 mmHg 14%
    13:00 +25°C° 0 mm 2 m/s 600 mmHg 13%
    14:00 +26°C° 0 mm 2 m/s 600 mmHg 12%
    15:00 +27°C° 0 mm 3 m/s 600 mmHg 12%
    16:00 +27°C° 0 mm 3 m/s 600 mmHg 12%
    17:00 +27°C° 0 mm 3 m/s 599 mmHg 12%
    18:00 +26°C° 0 mm 4 m/s 599 mmHg 14%
    19:00 +25°C° 0 mm 4 m/s 599 mmHg 17%
    20:00 +23°C° 0 mm 4 m/s 599 mmHg 19%
    21:00 +22°C° 0 mm 4 m/s 599 mmHg 21%
    22:00 +22°C° 0 mm 3 m/s 599 mmHg 23%
    23:00 +21°C° 0 mm 2 m/s 599 mmHg 26%

    Depois de amanhã, 3 Junho, Quarta-feira

    Tempo Temperatura Precipitação Vento Pressão Humidade
    00:00 +20°C° 0 mm 2 m/s 598 mmHg 27%
    01:00 +20°C° 0 mm 1 m/s 598 mmHg 29%
    02:00 +19°C° 0 mm 1 m/s 597 mmHg 31%
    03:00 +19°C° 0 mm 1 m/s 597 mmHg 32%
    04:00 +18°C° 0 mm 1 m/s 597 mmHg 33%
    05:00 +16°C° 0 mm 0 m/s 597 mmHg 34%
    06:00 +19°C° 0 mm 1 m/s 597 mmHg 31%
    07:00 +20°C° 0 mm 1 m/s 598 mmHg 27%
    08:00 +21°C° 0 mm 1 m/s 599 mmHg 23%
    09:00 +21°C° 0 mm 2 m/s 599 mmHg 21%
    10:00 +23°C° 0 mm 2 m/s 599 mmHg 19%
    11:00 +24°C° 0 mm 2 m/s 599 mmHg 17%
    12:00 +25°C° 0 mm 2 m/s 599 mmHg 16%
    13:00 +26°C° 0 mm 2 m/s 599 mmHg 14%
    14:00 +27°C° 0 mm 2 m/s 599 mmHg 13%
    15:00 +27°C° 0 mm 3 m/s 599 mmHg 13%
    16:00 +28°C° 0 mm 4 m/s 599 mmHg 13%
    17:00 +28°C° 0 mm 5 m/s 599 mmHg 12%
    18:00 +27°C° 0 mm 5 m/s 599 mmHg 15%
    19:00 +26°C° 0 mm 5 m/s 599 mmHg 18%
    20:00 +25°C° 0 mm 5 m/s 599 mmHg 21%
    21:00 +23°C° 0 mm 4 m/s 599 mmHg 24%
    22:00 +22°C° 0 mm 3 m/s 599 mmHg 28%
    23:00 +21°C° 0 mm 2 m/s 599 mmHg 31%

    4 Junho, Quinta-feira

    Tempo Temperatura Precipitação Vento Pressão Humidade
    00:00 +21°C° 0 mm 1 m/s 598 mmHg 33%
    01:00 +21°C° 0 mm 1 m/s 598 mmHg 35%
    02:00 +20°C° 0 mm 1 m/s 597 mmHg 37%
    03:00 +19°C° 0 mm 1 m/s 597 mmHg 37%
    04:00 +19°C° 0 mm 1 m/s 597 mmHg 38%
    05:00 +18°C° 0 mm 1 m/s 597 mmHg 39%
    06:00 +19°C° 0 mm 1 m/s 597 mmHg 35%
    07:00 +21°C° 0 mm 1 m/s 598 mmHg 31%
    08:00 +21°C° 0 mm 2 m/s 599 mmHg 27%
    09:00 +23°C° 0 mm 2 m/s 599 mmHg 24%
    10:00 +24°C° 0 mm 3 m/s 600 mmHg 21%
    11:00 +25°C° 0 mm 3 m/s 600 mmHg 19%
    12:00 +26°C° 0 mm 4 m/s 600 mmHg 18%
    13:00 +27°C° 0 mm 4 m/s 600 mmHg 17%
    14:00 +28°C° 0 mm 4 m/s 600 mmHg 16%
    15:00 +28°C° 0 mm 4 m/s 600 mmHg 17%
    16:00 +28°C° 0 mm 4 m/s 600 mmHg 17%
    17:00 +28°C° 0 mm 5 m/s 599 mmHg 18%
    18:00 +27°C° 0 mm 5 m/s 599 mmHg 19%
    19:00 +26°C° 0 mm 6 m/s 599 mmHg 21%
    20:00 +24°C° 0 mm 7 m/s 599 mmHg 22%
    21:00 +23°C° 0 mm 5 m/s 599 mmHg 25%
    22:00 +22°C° 0 mm 4 m/s 599 mmHg 28%
    23:00 +23°C° 0 mm 2 m/s 599 mmHg 30%

    5 Junho, Sexta-feira

    Tempo Temperatura Precipitação Vento Pressão Humidade
    00:00 +21°C° 0 mm 2 m/s 599 mmHg 30%
    01:00 +20°C° 0 mm 2 m/s 598 mmHg 31%
    02:00 +21°C° 0 mm 1 m/s 598 mmHg 31%
    03:00 +20°C° 0 mm 1 m/s 598 mmHg 32%
    04:00 +20°C° 0 mm 1 m/s 597 mmHg 32%
    05:00 +19°C° 0 mm 1 m/s 597 mmHg 33%
    06:00 +20°C° 0 mm 1 m/s 598 mmHg 30%
    07:00 +22°C° 0 mm 1 m/s 599 mmHg 26%
    08:00 +23°C° 0 mm 1 m/s 599 mmHg 23%
    09:00 +24°C° 0 mm 1 m/s 600 mmHg 21%
    10:00 +25°C° 0 mm 2 m/s 600 mmHg 19%
    11:00 +26°C° 0 mm 2 m/s 600 mmHg 16%
    12:00 +27°C° 0 mm 3 m/s 601 mmHg 15%
    13:00 +28°C° 0 mm 3 m/s 601 mmHg 14%
    14:00 +30°C° 0 mm 4 m/s 601 mmHg 13%
    15:00 +30°C° 0 mm 5 m/s 601 mmHg 13%
    16:00 +30°C° 0 mm 7 m/s 600 mmHg 12%
    17:00 +31°C° 0 mm 8 m/s 600 mmHg 12%
    18:00 +29°C° 0 mm 7 m/s 600 mmHg 14%
    19:00 +28°C° 0 mm 6 m/s 600 mmHg 16%
    20:00 +26°C° 0 mm 5 m/s 599 mmHg 18%
    21:00 +25°C° 0 mm 4 m/s 599 mmHg 20%
    22:00 +23°C° 0 mm 4 m/s 599 mmHg 23%
    23:00 +22°C° 0 mm 3 m/s 599 mmHg 25%

    6 Junho, Sábado

    Tempo Temperatura Precipitação Vento Pressão Humidade
    00:00 +21°C° 0 mm 2 m/s 599 mmHg 26%
    01:00 +21°C° 0 mm 2 m/s 598 mmHg 27%
    02:00 +21°C° 0 mm 1 m/s 598 mmHg 28%
    03:00 +20°C° 0 mm 1 m/s 598 mmHg 29%
    04:00 +19°C° 0 mm 2 m/s 598 mmHg 29%
    05:00 +18°C° 0 mm 2 m/s 598 mmHg 29%
    06:00 +20°C° 0 mm 2 m/s 599 mmHg 27%
    07:00 +21°C° 0 mm 3 m/s 599 mmHg 24%
    08:00 +24°C° 0 mm 3 m/s 600 mmHg 22%
    09:00 +25°C° 0 mm 3 m/s 600 mmHg 20%
    10:00 +26°C° 0 mm 4 m/s 601 mmHg 18%
    11:00 +27°C° 0 mm 4 m/s 601 mmHg 16%
    12:00 +28°C° 0 mm 4 m/s 601 mmHg 14%
    13:00 +29°C° 0 mm 4 m/s 601 mmHg 13%
    14:00 +30°C° 0 mm 4 m/s 601 mmHg 12%
    15:00 +30°C° 0 mm 5 m/s 601 mmHg 11%
    16:00 +32°C° 0 mm 6 m/s 600 mmHg 11%
    17:00 +32°C° 0 mm 7 m/s 600 mmHg 10%
    18:00 +29°C° 0 mm 6 m/s 600 mmHg 13%
    19:00 +27°C° 0 mm 6 m/s 600 mmHg 16%
    20:00 +25°C° 0 mm 5 m/s 599 mmHg 19%
    21:00 +25°C° 0 mm 5 m/s 599 mmHg 20%
    22:00 +23°C° 0 mm 4 m/s 599 mmHg 21%
    23:00 +22°C° 0 mm 3 m/s 600 mmHg 22%
    Mostrar mais